ALCOMSAT 1

Last updated on Sat Jul 05 2025 00:02:47 GMT+0000 (Coordinated Universal Time)

1 43039U 17078A 25185.13216089 -.00000172 00000+0 00000+0 0 9992 2 43039 0.0453 197.4781 0001924 268.8628 198.8396 1.00272884 27809
UTC large
Height (km)
Speed (km/s)
/
Latitude / Longitude
Inclination (degrees)
Orbital Period (minutes)
Azimuth
Elevation
Range (km)
Doppler Factor

Next 0 passes for location: London (51.5072 / 0.1276)

Sorry there are no passes over London.